QPF
0.00 0.01 0.02 0.00 0.01 0.01 0.01 0.00 0.00 0.00 0.00 0.00 0.00 0.00 0.00 0.00 0.00 0.00 0.00 0.00 0.00 0.00 0.00 0.00 0.00 0.00 0.00 0.00 0.00 0.00 0.00 0.00 0.00 0.00 0.00 0.00 0.00 0.00 0.00 0.00 0.00 0.00 0.00 0.00 0.00 0.00 0.00 0.00 0.00 0.00 0.00 0.00 0.00 0.00 0.00 0.00 0.00 0.00 0.00 0.00 0.00 0.00 0.00 0.00 0.00 0.00 0.00 0.00 0.00 0.00 0.00 0.00 0.00 0.00
0.00 0.01 0.01 0.00 0.01 0.00 0.00 0.00 0.00 0.00 0.00 0.00 0.00 0.00 0.00 0.00 0.00 0.00 0.00 0.00 0.00 0.00 0.00 0.00 0.00 0.00 0.00 0.00 0.00 0.00 0.00 0.00 0.00 0.00 0.00 0.00 0.00 0.00 0.00 0.00 0.00 0.00 0.00 0.00 0.00 0.00 0.00 0.00 0.00 0.00 0.00 0.00 0.00 0.00 0.00 0.00 0.00 0.00 0.00 0.00 0.00 0.00 0.00 0.00 0.00 0.00 0.00 0.00 0.00 0.00 0.00 0.00 0.00 0.00
0.00 0.00 0.00 0.00 0.02 0.00 0.00 0.00 0.01 0.00 0.00 0.00 0.00 0.00 0.00 0.00 0.00 0.00 0.00 0.00 0.00 0.00 0.00 0.00 0.00 0.00 0.00 0.00 0.00 0.00 0.00 0.00 0.00 0.00 0.00 0.00 0.00 0.00 0.00 0.00 0.00 0.00 0.00 0.00 0.00 0.00 0.00 0.00 0.00 0.00 0.00 0.00 0.00 0.00 0.00 0.00 0.00 0.00 0.00 0.00 0.00 0.00 0.00 0.00 0.00 0.00 0.00 0.00 0.00 0.00 0.00 0.00 0.00 0.00
0.00 0.00 0.02 0.00 0.00 0.00 0.01 0.00 0.00 0.00 0.00 0.00 0.00 0.00 0.00 0.00 0.00 0.00 0.00 0.00 0.00 0.00 0.00 0.00 0.00 0.00 0.00 0.00 0.00 0.00 0.00 0.00 0.00 0.00 0.00 0.00 0.00 0.00 0.00 0.00 0.00 0.00 0.00 0.00 0.00 0.00 0.00 0.00 0.00 0.00 0.00 0.00 0.00 0.00 0.00 0.00 0.00 0.00 0.00 0.00 0.00 0.00 0.00 0.00 0.00 0.00 0.00 0.00 0.00 0.00 0.00 0.00 0.00 0.00
0.00 0.00 0.01 0.02 0.01 0.01 0.00 0.00 0.00 0.00 0.00 0.00 0.00 0.00 0.00 0.00 0.00 0.00 0.00 0.00 0.00 0.00 0.00 0.00 0.00 0.00 0.00 0.00 0.00 0.00 0.00 0.00 0.00 0.00 0.00 0.00 0.00 0.00 0.00 0.00 0.00 0.00 0.00 0.00 0.00 0.00 0.00 0.00 0.00 0.00 0.00 0.00 0.00 0.00 0.00 0.00 0.00 0.00 0.00 0.00 0.00 0.00 0.00 0.00 0.00 0.00 0.00 0.00 0.00 0.00 0.00 0.00 0.00 0.00
0.00 0.00 0.00 0.01 0.03 0.01 0.01 0.00 0.00 0.00 0.00 0.00 0.00 0.00 0.00 0.00 0.00 0.00 0.00 0.00 0.00 0.00 0.00 0.00 0.00 0.00 0.00 0.00 0.00 0.00 0.00 0.00 0.00 0.00 0.00 0.00 0.00 0.00 0.00 0.00 0.00 0.00 0.00 0.00 0.00 0.00 0.00 0.00 0.00 0.00 0.00 0.00 0.00 0.00 0.00 0.00 0.00 0.00 0.00 0.00 0.00 0.00 0.00 0.00 0.00 0.00 0.00 0.00 0.00 0.00 0.00 0.00 0.00 0.00
0.00 0.00 0.01 0.01 0.01 0.00 0.00 0.00 0.00 0.00 0.00 0.00 0.00 0.00 0.00 0.00 0.00 0.00 0.00 0.00 0.00 0.00 0.00 0.00 0.00 0.00 0.00 0.00 0.00 0.00 0.00 0.00 0.00 0.00 0.00 0.00 0.00 0.00 0.00 0.00 0.00 0.00 0.00 0.00 0.00 0.00 0.00 0.00 0.00 0.00 0.00 0.00 0.00 0.00 0.00 0.00 0.00 0.00 0.00 0.00 0.00 0.00 0.00 0.00 0.00 0.00 0.00 0.00 0.00 0.00 0.00 0.00 0.00 0.00
0.00 0.00 0.01 0.00 0.00 0.00 0.00 0.00 0.00 0.00 0.00 0.00 0.00 0.00 0.00 0.00 0.00 0.00 0.00 0.00 0.00 0.00 0.00 0.00 0.00 0.00 0.00 0.00 0.00 0.00 0.00 0.00 0.00 0.00 0.00 0.00 0.00 0.00 0.00 0.00 0.00 0.00 0.00 0.00 0.00 0.00 0.00 0.00 0.00 0.00 0.00 0.00 0.00 0.00 0.00 0.00 0.00 0.00 0.00 0.00 0.00 0.00 0.00 0.00 0.00 0.00 0.00 0.00 0.00 0.00 0.00 0.00 0.00 0.00
0.00 0.00 0.00 0.00 0.00 0.00 0.00 0.00 0.00 0.00 0.00 0.00 0.00 0.00 0.00 0.00 0.00 0.00 0.00 0.00 0.00 0.00 0.00 0.00 0.00 0.00 0.00 0.00 0.00 0.00 0.00 0.00 0.00 0.00 0.00 0.00 0.00 0.00 0.00 0.00 0.00 0.00 0.00 0.00 0.00 0.00 0.00 0.00 0.00 0.00 0.00 0.00 0.00 0.00 0.00 0.00 0.00 0.00 0.00 0.00 0.00 0.00 0.00 0.00 0.00 0.00 0.00 0.00 0.00 0.00 0.00 0.00 0.00 0.00
0.00 0.00 0.00 0.00 0.00 0.00 0.00 0.00 0.00 0.00 0.00 0.00 0.00 0.00 0.00 0.00 0.00 0.00 0.00 0.00 0.00 0.00 0.00 0.00 0.00 0.00 0.00 0.00 0.00 0.00 0.00 0.00 0.00 0.00 0.00 0.00 0.00 0.00 0.00 0.00 0.00 0.00 0.00 0.00 0.00 0.00 0.00 0.00 0.00 0.00 0.00 0.00 0.00 0.00 0.00 0.00 0.00 0.00 0.00 0.00 0.00 0.00 0.00 0.00 0.00 0.00 0.00 0.00 0.00 0.00 0.00 0.00 0.00 0.00
0.00 0.00 0.00 0.00 0.00 0.00 0.00 0.00 0.00 0.00 0.00 0.00 0.00 0.00 0.00 0.00 0.00 0.00 0.00 0.00 0.00 0.00 0.00 0.00 0.00 0.00 0.00 0.00 0.00 0.00 0.00 0.00 0.00 0.00 0.00 0.00 0.00 0.00 0.00 0.00 0.00 0.00 0.00 0.00 0.00 0.00 0.00 0.00 0.00 0.00 0.00 0.00 0.00 0.00 0.00 0.00 0.00 0.00 0.00 0.00 0.00 0.00 0.00 0.00 0.00 0.00 0.00 0.00 0.00 0.00 0.00 0.00 0.00 0.00
0.00 0.00 0.00 0.00 0.00 0.00 0.00 0.00 0.00 0.00 0.00 0.00 0.00 0.00 0.00 0.00 0.00 0.00 0.00 0.00 0.00 0.00 0.00 0.00 0.00 0.00 0.00 0.00 0.00 0.00 0.00 0.00 0.00 0.00 0.00 0.00 0.00 0.00 0.00 0.00 0.00 0.00 0.00 0.00 0.00 0.00 0.00 0.00 0.00 0.00 0.00 0.00 0.00 0.00 0.00 0.00 0.00 0.00 0.00 0.00 0.00 0.00 0.00 0.00 0.00 0.00 0.00 0.00 0.00 0.00 0.00 0.00 0.00 0.00
0.00 0.00 0.00 0.00 0.00 0.00 0.00 0.00 0.00 0.00 0.00 0.00 0.00 0.00 0.00 0.00 0.00 0.00 0.00 0.00 0.00 0.00 0.00 0.00 0.00 0.00 0.00 0.00 0.00 0.00 0.00 0.00 0.00 0.00 0.00 0.00 0.00 0.00 0.00 0.00 0.00 0.00 0.00 0.00 0.00 0.00 0.00 0.00 0.00 0.00 0.00 0.00 0.00 0.00 0.00 0.00 0.00 0.00 0.00 0.00 0.00 0.00 0.00 0.00 0.00 0.00 0.00 0.00 0.00 0.00 0.00 0.00 0.00 0.00
0.00 0.00 0.00 0.00 0.00 0.00 0.00 0.00 0.00 0.00 0.00 0.00 0.00 0.00 0.00 0.00 0.00 0.00 0.00 0.00 0.00 0.02 0.02 0.01 0.01 0.00 0.00 0.00 0.00 0.00 0.00 0.00 0.00 0.00 0.00 0.00 0.00 0.00 0.00 0.00 0.00 0.00 0.00 0.00 0.00 0.00 0.00 0.00 0.00 0.00 0.00 0.00 0.00 0.00 0.00 0.00 0.00 0.00 0.00 0.00 0.00 0.00 0.00 0.00 0.00 0.00 0.00 0.00 0.00 0.00 0.00 0.00 0.00 0.00
0.00 0.00 0.00 0.00 0.00 0.00 0.00 0.00 0.00 0.00 0.00 0.00 0.00 0.00 0.00 0.00 0.00 0.00 0.00 0.00 0.00 0.00 0.00 0.00 0.02 0.03 0.02 0.01 0.01 0.00 0.00 0.00 0.00 0.00 0.00 0.00 0.00 0.00 0.00 0.00 0.00 0.00 0.00 0.00 0.00 0.00 0.00 0.00 0.00 0.00 0.00 0.00 0.00 0.00 0.00 0.00 0.00 0.00 0.00 0.00 0.00 0.00 0.00 0.00 0.00 0.00 0.00 0.00 0.00 0.00 0.00 0.00 0.00 0.00
0.01 0.03 0.03 0.01 0.04 0.02 0.00 0.00 0.00 0.00 0.00 0.00 0.00 0.00 0.00 0.00 0.00 0.00 0.00 0.00 0.00 0.00 0.00 0.01 0.00 0.01 0.01 0.04 0.01 0.00 0.01 0.00 0.00 0.00 0.00 0.00 0.00 0.00 0.00 0.00 0.00 0.00 0.00 0.00 0.00 0.00 0.00 0.00 0.00 0.00 0.00 0.00 0.00 0.00 0.00 0.00 0.00 0.00 0.00 0.00 0.00 0.00 0.00 0.00 0.00 0.00 0.00 0.00 0.00 0.00 0.00 0.00 0.00 0.00
0.01 0.24 0.09 0.22 0.15 0.04 0.00 0.00 0.00 0.00 0.00 0.00 0.00 0.00 0.00 0.00 0.00 0.00 0.00 0.00 0.00 0.00 0.00 0.00 0.00 0.00 0.03 0.02 0.00 0.01 0.03 0.02 0.00 0.00 0.01 0.00 0.00 0.00 0.00 0.00 0.00 0.00 0.00 0.00 0.00 0.00 0.00 0.00 0.00 0.00 0.00 0.00 0.00 0.00 0.00 0.00 0.00 0.00 0.00 0.00 0.00 0.00 0.00 0.00 0.00 0.00 0.00 0.00 0.00 0.00 0.00 0.00 0.00 0.00
0.07 0.02 0.11 0.19 0.24 0.37 0.20 0.17 0.04 0.01 0.01 0.01 0.00 0.00 0.00 0.00 0.00 0.00 0.00 0.00 0.00 0.00 0.00 0.00 0.00 0.00 0.00 0.00 0.00 0.02 0.00 0.00 0.00 0.00 0.00 0.00 0.04 0.03 0.00 0.01 0.00 0.00 0.00 0.00 0.00 0.00 0.00 0.00 0.00 0.00 0.00 0.00 0.00 0.00 0.00 0.00 0.00 0.00 0.00 0.00 0.00 0.00 0.00 0.00 0.00 0.00 0.00 0.00 0.00 0.00 0.00 0.00 0.00 0.00
0.03 0.09 0.05 0.29 0.11 0.22 0.14 0.22 0.14 0.06 0.03 0.00 0.00 0.01 0.01 0.01 0.00 0.00 0.00 0.00 0.00 0.00 0.00 0.00 0.00 0.00 0.00 0.00 0.00 0.00 0.00 0.00 0.03 0.00 0.00 0.00 0.01 0.02 0.00 0.02 0.00 0.00 0.00 0.03 0.02 0.02 0.00 0.00 0.00 0.00 0.00 0.00 0.00 0.00 0.00 0.00 0.00 0.00 0.00 0.00 0.00 0.00 0.00 0.00 0.00 0.00 0.00 0.00 0.00 0.00 0.00 0.00 0.00 0.00
0.04 0.14 0.08 0.01 0.07 0.27 0.12 0.03 0.00 0.15 0.13 0.00 0.00 0.00 0.00 0.01 0.01 0.00 0.00 0.00 0.00 0.00 0.00 0.00 0.00 0.00 0.00 0.00 0.01 0.02 0.00 0.00 0.00 0.00 0.00 0.00 0.03 0.02 0.07 0.12 0.12 0.38 0.04 0.02 0.10 0.09 0.02 0.06 0.01 0.00 0.00 0.00 0.00 0.00 0.00 0.00 0.00 0.00 0.00 0.00 0.00 0.00 0.00 0.00 0.00 0.00 0.00 0.00 0.00 0.00 0.00 0.00 0.00 0.00
0.14 0.08 0.10 0.13 0.18 0.40 0.46 0.15 0.01 0.01 0.00 0.05 0.02 0.00 0.00 0.00 0.00 0.00 0.00 0.00 0.00 0.00 0.00 0.00 0.00 0.00 0.00 0.00 0.00 0.00 0.00 0.00 0.00 0.00 0.04 0.12 0.15 0.02 0.07 0.14 0.03 0.08 0.13 0.07 0.19 0.06 0.06 0.05 0.03 0.01 0.00 0.00 0.00 0.00 0.00 0.00 0.00 0.00 0.00 0.00 0.00 0.00 0.00 0.00 0.00 0.00 0.00 0.00 0.00 0.00 0.00 0.00 0.00 0.00
0.08 0.24 0.09 0.11 0.35 0.24 0.36 0.16 0.06 0.02 0.01 0.00 0.00 0.01 0.00 0.02 0.00 0.01 0.00 0.00 0.00 0.00 0.00 0.00 0.00 0.00 0.00 0.00 0.00 0.00 0.00 0.00 0.00 0.01 0.04 0.11 0.17 0.27 0.29 0.21 0.14 0.14 0.15 0.05 0.14 0.07 0.15 0.09 0.04 0.03 0.01 0.00 0.00 0.00 0.00 0.00 0.00 0.00 0.00 0.00 0.00 0.00 0.00 0.00 0.00 0.00 0.00 0.00 0.00 0.00 0.00 0.00 0.00 0.00
0.11 0.14 0.10 0.05 0.01 0.01 0.00 0.00 0.00 0.00 0.00 0.00 0.00 0.01 0.08 0.03 0.08 0.03 0.00 0.00 0.00 0.00 0.00 0.00 0.00 0.00 0.00 0.00 0.00 0.00 0.00 0.00 0.01 0.03 0.29 0.28 0.19 0.24 0.23 0.19 0.19 0.32 0.25 0.13 0.13 0.41 0.11 0.04 0.01 0.00 0.00 0.00 0.00 0.00 0.00 0.00 0.00 0.00 0.00 0.00 0.00 0.00 0.00 0.00 0.00 0.00 0.00 0.00 0.00 0.00 0.00 0.00 0.00 0.00
0.00 0.02 0.06 0.01 0.01 0.01 0.01 0.01 0.01 0.00 0.00 0.00 0.00 0.00 0.00 0.01 0.01 0.00 0.00 0.00 0.00 0.00 0.00 0.00 0.00 0.00 0.00 0.00 0.01 0.01 0.00 0.01 0.03 0.01 0.03 0.01 0.00 0.01 0.01 0.01 0.02 0.07 0.00 0.01 0.00 0.00 0.00 0.00 0.00 0.00 0.00 0.00 0.00 0.00 0.00 0.00 0.00 0.00 0.00 0.00 0.00 0.00 0.00 0.00 0.00 0.00 0.00 0.00 0.00 0.00 0.00 0.00 0.00 0.00
0.01 0.01 0.02 0.02 0.01 0.00 0.00 0.00 0.00 0.01 0.01 0.01 0.00 0.00 0.00 0.00 0.00 0.00 0.00 0.00 0.01 0.00 0.00 0.00 0.00 0.00 0.06 0.00 0.01 0.03 0.03 0.00 0.24 0.01 0.00 0.00 0.00 0.01 0.00 0.00 0.11 0.00 0.03 0.04 0.00 0.00 0.00 0.00 0.00 0.00 0.00 0.00 0.00 0.00 0.00 0.00 0.00 0.00 0.00 0.00 0.00 0.00 0.00 0.00 0.00 0.00 0.00 0.00 0.00 0.00 0.00 0.00 0.00 0.00
0.00 0.00 0.00 0.00 0.00 0.00 0.00 0.00 0.00 0.00 0.00 0.00 0.00 0.00 0.00 0.00 0.00 0.00 0.01 0.03 0.01 0.00 0.00 0.00 0.00 0.00 0.00 0.00 0.00 0.00 0.00 0.00 0.00 0.00 0.00 0.01 0.00 0.14 0.00 0.00 0.00 0.04 0.01 0.00 0.00 0.00 0.00 0.00 0.00 0.00 0.00 0.00 0.00 0.00 0.00 0.00 0.00 0.00 0.00 0.00 0.00 0.00 0.00 0.00 0.00 0.00 0.00 0.00 0.00 0.00 0.00 0.00 0.00 0.00
0.00 0.01 0.00 0.00 0.00 0.00 0.00 0.00 0.00 0.00 0.00 0.00 0.00 0.00 0.00 0.00 0.00 0.00 0.02 0.02 0.01 0.02 0.01 0.00 0.00 0.00 0.00 0.00 0.00 0.00 0.00 0.00 0.00 0.00 0.00 0.00 0.00 0.00 0.00 0.00 0.00 0.00 0.00 0.00 0.00 0.00 0.00 0.00 0.00 0.00 0.00 0.00 0.00 0.00 0.00 0.00 0.00 0.00 0.00 0.00 0.00 0.00 0.00 0.00 0.00 0.00 0.00 0.00 0.00 0.00 0.00 0.00 0.00 0.00
0.00 0.00 0.00 0.00 0.00 0.00 0.00 0.00 0.00 0.00 0.00 0.00 0.00 0.00 0.00 0.00 0.00 0.00 0.00 0.00 0.01 0.00 0.00 0.00 0.01 0.01 0.00 0.00 0.00 0.00 0.00 0.00 0.00 0.00 0.00 0.00 0.00 0.00 0.02 0.01 0.00 0.00 0.00 0.00 0.00 0.00 0.00 0.00 0.00 0.00 0.00 0.00 0.00 0.00 0.00 0.00 0.00 0.00 0.00 0.00 0.00 0.00 0.00 0.00 0.00 0.00 0.00 0.00 0.00 0.00 0.00 0.00 0.00 0.00
0.00 0.00 0.00 0.00 0.00 0.00 0.00 0.00 0.00 0.00 0.00 0.00 0.00 0.00 0.00 0.00 0.00 0.00 0.00 0.00 0.00 0.00 0.00 0.00 0.00 0.00 0.03 0.00 0.00 0.00 0.00 0.00 0.00 0.11 0.01 0.01 0.01 0.01 0.01 0.01 0.01 0.01 0.01 0.00 0.00 0.00 0.00 0.00 0.00 0.00 0.00 0.00 0.01 0.01 0.01 0.01 0.00 0.00 0.00 0.00 0.00 0.00 0.00 0.00 0.00 0.00 0.00 0.00 0.00 0.00 0.00 0.00 0.00 0.00
0.00 0.00 0.00 0.00 0.00 0.00 0.00 0.00 0.00 0.00 0.00 0.00 0.00 0.00 0.00 0.00 0.00 0.00 0.00 0.00 0.00 0.00 0.00 0.00 0.00 0.00 0.00 0.00 0.05 0.03 0.02 0.03 0.04 0.02 0.01 0.03 0.01 0.01 0.02 0.02 0.02 0.03 0.02 0.01 0.01 0.01 0.00 0.00 0.01 0.01 0.02 0.02 0.01 0.00 0.00 0.00 0.00 0.00 0.00 0.00 0.00 0.00 0.00 0.00 0.00 0.00 0.00 0.00 0.00 0.00 0.00 0.00 0.00 0.00
0.00 0.00 0.00 0.00 0.00 0.00 0.00 0.00 0.00 0.00 0.00 0.00 0.00 0.00 0.00 0.00 0.00 0.00 0.00 0.00 0.00 0.00 0.00 0.00 0.00 0.01 0.01 0.01 0.02 0.02 0.03 0.03 0.03 0.02 0.02 0.02 0.02 0.02 0.02 0.02 0.03 0.03 0.02 0.02 0.02 0.02 0.03 0.02 0.02 0.01 0.01 0.00 0.00 0.00 0.00 0.00 0.00 0.00 0.00 0.00 0.00 0.00 0.00 0.00 0.00 0.00 0.00 0.00 0.00 0.00 0.00 0.00 0.00 0.00
0.00 0.00 0.00 0.00 0.00 0.00 0.00 0.00 0.00 0.00 0.00 0.00 0.00 0.00 0.00 0.00 0.00 0.00 0.00 0.00 0.00 0.00 0.00 0.00 0.00 0.00 0.01 0.05 0.03 0.04 0.05 0.02 0.04 0.01 0.02 0.02 0.02 0.02 0.02 0.03 0.04 0.06 0.06 0.05 0.03 0.02 0.01 0.01 0.00 0.00 0.00 0.00 0.00 0.00 0.00 0.00 0.00 0.00 0.00 0.00 0.00 0.00 0.00 0.00 0.00 0.00 0.00 0.00 0.00 0.00 0.00 0.00 0.00 0.00
0.00 0.00 0.00 0.00 0.00 0.00 0.00 0.00 0.00 0.00 0.00 0.00 0.00 0.00 0.00 0.00 0.00 0.00 0.00 0.00 0.00 0.00 0.00 0.00 0.00 0.00 0.00 0.00 0.00 0.00 0.06 0.00 0.00 0.00 0.01 0.01 0.02 0.03 0.01 0.02 0.01 0.02 0.02 0.01 0.01 0.01 0.00 0.00 0.00 0.00 0.00 0.00 0.00 0.00 0.00 0.00 0.00 0.00 0.00 0.00 0.00 0.00 0.00 0.00 0.00 0.00 0.00 0.00 0.00 0.00 0.00 0.00 0.00 0.00
0.00 0.00 0.00 0.00 0.00 0.00 0.00 0.00 0.00 0.00 0.00 0.00 0.00 0.00 0.00 0.00 0.00 0.00 0.00 0.00 0.00 0.01 0.00 0.00 0.00 0.00 0.00 0.00 0.00 0.00 0.00 0.00 0.02 0.00 0.00 0.00 0.03 0.01 0.05 0.02 0.01 0.00 0.00 0.01 0.01 0.01 0.00 0.00 0.00 0.00 0.00 0.00 0.00 0.00 0.00 0.00 0.00 0.00 0.00 0.00 0.00 0.00 0.00 0.00 0.00 0.00 0.00 0.00 0.00 0.00 0.00 0.00 0.00 0.00
0.00 0.00 0.00 0.00 0.00 0.00 0.00 0.00 0.00 0.00 0.00 0.00 0.00 0.00 0.00 0.00 0.00 0.00 0.00 0.00 0.00 0.00 0.00 0.00 0.00 0.00 0.00 0.00 0.02 0.02 0.00 0.00 0.00 0.00 0.00 0.01 0.04 0.01 0.00 0.01 0.01 0.00 0.00 0.00 0.00 0.00 0.00 0.00 0.00 0.00 0.00 0.00 0.00 0.00 0.00 0.00 0.00 0.00 0.00 0.00 0.00 0.00 0.00 0.00 0.00 0.00 0.00 0.00 0.00 0.00 0.00 0.00 0.00 0.00
0.00 0.00 0.00 0.00 0.00 0.00 0.00 0.00 0.00 0.00 0.00 0.00 0.00 0.00 0.00 0.00 0.00 0.00 0.00 0.00 0.00 0.00 0.00 0.00 0.00 0.00 0.00 0.00 0.00 0.00 0.00 0.00 0.07 0.11 0.05 0.08 0.08 0.04 0.01 0.01 0.01 0.00 0.00 0.00 0.00 0.00 0.00 0.00 0.00 0.00 0.00 0.00 0.00 0.00 0.00 0.00 0.00 0.00 0.00 0.00 0.00 0.00 0.00 0.00 0.00 0.00 0.00 0.00 0.00 0.00 0.00 0.00 0.00 0.00
0.00 0.00 0.00 0.00 0.00 0.00 0.00 0.00 0.00 0.00 0.00 0.00 0.00 0.00 0.00 0.00 0.00 0.00 0.00 0.00 0.00 0.00 0.00 0.00 0.00 0.00 0.00 0.00 0.07 0.17 0.04 0.05 0.04 0.05 0.03 0.02 0.01 0.01 0.00 0.00 0.00 0.00 0.00 0.00 0.00 0.00 0.00 0.00 0.00 0.00 0.00 0.00 0.00 0.00 0.00 0.00 0.00 0.00 0.00 0.00 0.00 0.00 0.00 0.00 0.00 0.00 0.00 0.00 0.00 0.00 0.00 0.00 0.00 0.00
0.00 0.00 0.00 0.00 0.00 0.00 0.00 0.00 0.00 0.00 0.00 0.00 0.00 0.00 0.00 0.00 0.00 0.00 0.00 0.00 0.00 0.00 0.00 0.00 0.00 0.00 0.01 0.04 0.02 0.02 0.03 0.04 0.03 0.01 0.01 0.01 0.01 0.01 0.02 0.03 0.03 0.03 0.02 0.02 0.01 0.01 0.00 0.00 0.00 0.00 0.00 0.00 0.00 0.00 0.00 0.00 0.00 0.00 0.00 0.00 0.00 0.00 0.00 0.00 0.00 0.00 0.00 0.00 0.00 0.00 0.00 0.00 0.00 0.00
0.00 0.00 0.00 0.00 0.00 0.00 0.00 0.00 0.00 0.00 0.00 0.00 0.00 0.00 0.00 0.00 0.00 0.00 0.00 0.00 0.00 0.00 0.00 0.00 0.00 0.01 0.02 0.01 0.03 0.04 0.05 0.03 0.02 0.02 0.01 0.02 0.04 0.04 0.04 0.03 0.03 0.02 0.01 0.01 0.00 0.00 0.00 0.00 0.00 0.00 0.00 0.00 0.00 0.00 0.00 0.00 0.00 0.00 0.00 0.00 0.00 0.00 0.00 0.00 0.00 0.00 0.00 0.00 0.00 0.00 0.00 0.00 0.00 0.00
0.00 0.00 0.00 0.00 0.00 0.00 0.00 0.00 0.00 0.00 0.00 0.00 0.00 0.00 0.00 0.00 0.00 0.00 0.00 0.00 0.00 0.00 0.00 0.00 0.00 0.00 0.00 0.00 0.01 0.01 0.02 0.02 0.02 0.07 0.08 0.07 0.03 0.05 0.03 0.01 0.01 0.01 0.00 0.00 0.00 0.00 0.00 0.00 0.00 0.00 0.00 0.00 0.00 0.00 0.00 0.00 0.00 0.00 0.00 0.00 0.00 0.00 0.00 0.00 0.00 0.00 0.00 0.00 0.00 0.00 0.00 0.00 0.00 0.00
0.00 0.00 0.00 0.00 0.00 0.00 0.00 0.00 0.00 0.00 0.00 0.00 0.00 0.00 0.00 0.00 0.00 0.00 0.00 0.00 0.00 0.00 0.00 0.00 0.00 0.00 0.01 0.02 0.03 0.04 0.03 0.02 0.03 0.03 0.02 0.01 0.01 0.01 0.00 0.00 0.00 0.00 0.00 0.00 0.00 0.00 0.00 0.00 0.00 0.00 0.00 0.00 0.00 0.00 0.00 0.00 0.00 0.00 0.00 0.00 0.00 0.00 0.00 0.00 0.00 0.00 0.00 0.00 0.00 0.00 0.00 0.00 0.00 0.00
0.00 0.00 0.00 0.00 0.00 0.00 0.00 0.00 0.00 0.00 0.00 0.00 0.00 0.00 0.00 0.00 0.00 0.00 0.00 0.00 0.00 0.00 0.00 0.00 0.00 0.02 0.04 0.05 0.03 0.03 0.02 0.02 0.01 0.01 0.00 0.00 0.00 0.00 0.00 0.00 0.01 0.00 0.00 0.00 0.00 0.00 0.00 0.00 0.00 0.00 0.00 0.00 0.00 0.00 0.00 0.00 0.00 0.00 0.00 0.00 0.00 0.00 0.00 0.00 0.00 0.00 0.00 0.00 0.00 0.00 0.00 0.00 0.00 0.00
0.00 0.00 0.00 0.00 0.00 0.00 0.00 0.00 0.00 0.00 0.00 0.00 0.00 0.00 0.00 0.00 0.00 0.00 0.00 0.00 0.00 0.00 0.00 0.02 0.04 0.06 0.06 0.04 0.03 0.02 0.02 0.02 0.03 0.04 0.04 0.02 0.01 0.00 0.00 0.00 0.00 0.00 0.00 0.00 0.00 0.00 0.00 0.00 0.00 0.00 0.00 0.00 0.00 0.00 0.00 0.00 0.00 0.00 0.00 0.00 0.00 0.00 0.00 0.00 0.00 0.00 0.00 0.00 0.00 0.00 0.00 0.00 0.00 0.00
0.00 0.00 0.00 0.00 0.00 0.00 0.00 0.00 0.00 0.00 0.00 0.00 0.00 0.00 0.00 0.00 0.00 0.00 0.00 0.00 0.00 0.00 0.03 0.09 0.13 0.11 0.09 0.07 0.08 0.09 0.07 0.06 0.05 0.05 0.02 0.01 0.00 0.00 0.00 0.00 0.00 0.00 0.00 0.00 0.00 0.00 0.00 0.00 0.00 0.00 0.00 0.00 0.00 0.00 0.00 0.00 0.00 0.00 0.00 0.00 0.00 0.00 0.00 0.00 0.00 0.00 0.00 0.00 0.00 0.00 0.00 0.00 0.00 0.00
0.00 0.00 0.00 0.00 0.00 0.00 0.00 0.00 0.00 0.00 0.00 0.00 0.00 0.00 0.00 0.00 0.00 0.00 0.00 0.00 0.01 0.01 0.04 0.05 0.03 0.04 0.04 0.04 0.03 0.03 0.03 0.03 0.03 0.01 0.01 0.00 0.00 0.00 0.00 0.00 0.00 0.00 0.00 0.00 0.00 0.00 0.00 0.00 0.00 0.00 0.00 0.00 0.00 0.00 0.00 0.00 0.00 0.00 0.00 0.00 0.00 0.00 0.00 0.00 0.00 0.00 0.00 0.00 0.00 0.00 0.00 0.00 0.00 0.00
MSLP
1018.99 1019.19 1019.31 1019.43 1019.51 1019.51 1019.39 1019.51 1019.55 1019.55 1019.79 1019.87 1020.07 1020.27 1020.83 1021.27 1022.15 1022.75 1023.03 1023.03 1023.47 1023.31 1022.71 1023.23 1023.43 1023.27 1023.63 1023.99 1024.19 1024.43 1024.63 1024.75 1024.91 1025.11 1025.35 1025.63 1025.83 1025.87 1025.91 1026.03 1026.15 1026.27 1026.35 1026.39 1026.43 1026.47 1026.55 1026.59 1026.63 1026.71 1026.75 1026.83 1026.91 1026.95 1027.03 1027.07 1027.15 1027.27 1027.35 1027.43 1027.47 1027.51 1027.55 1027.59 1027.63 1027.67 1027.71 1027.79 1027.87 1027.91 1027.91 1027.91 1027.91 1027.91
1018.83 1019.07 1019.23 1019.27 1019.39 1019.31 1019.35 1019.47 1019.39 1019.43 1019.51 1019.71 1019.91 1020.15 1020.27 1020.47 1021.39 1021.83 1022.79 1023.11 1022.59 1022.95 1022.55 1022.51 1023.27 1023.39 1023.71 1023.91 1024.19 1024.31 1024.59 1024.67 1024.79 1025.11 1025.39 1025.67 1025.91 1025.99 1026.03 1026.15 1026.23 1026.35 1026.39 1026.47 1026.51 1026.51 1026.55 1026.59 1026.67 1026.71 1026.79 1026.87 1026.95 1027.03 1027.07 1027.11 1027.19 1027.27 1027.39 1027.47 1027.51 1027.51 1027.55 1027.59 1027.59 1027.59 1027.67 1027.75 1027.83 1027.87 1027.91 1027.95 1027.99 1027.99
1018.79 1019.07 1019.27 1019.23 1019.39 1019.35 1019.51 1019.51 1019.47 1019.39 1019.43 1019.55 1019.63 1019.91 1020.11 1020.35 1020.71 1021.27 1021.91 1022.87 1022.39 1022.03 1022.71 1022.55 1022.59 1023.07 1023.43 1023.63 1023.91 1024.19 1024.39 1024.59 1024.75 1025.07 1025.39 1025.71 1025.95 1026.03 1026.15 1026.23 1026.31 1026.39 1026.43 1026.51 1026.55 1026.55 1026.59 1026.67 1026.71 1026.83 1026.87 1026.95 1027.03 1027.07 1027.11 1027.15 1027.19 1027.27 1027.43 1027.51 1027.51 1027.51 1027.55 1027.59 1027.63 1027.63 1027.71 1027.79 1027.83 1027.91 1027.99 1028.03 1028.07 1028.07
1018.75 1019.03 1019.31 1019.35 1019.39 1019.35 1019.43 1019.55 1019.55 1019.55 1019.55 1019.55 1019.71 1019.83 1020.11 1020.35 1020.51 1020.83 1021.51 1022.19 1022.59 1021.83 1022.19 1022.55 1022.71 1022.79 1023.07 1023.31 1023.79 1024.15 1024.31 1024.51 1024.67 1024.95 1025.35 1025.75 1025.95 1026.07 1026.27 1026.35 1026.35 1026.39 1026.47 1026.55 1026.59 1026.59 1026.63 1026.71 1026.79 1026.87 1026.95 1026.99 1027.03 1027.11 1027.15 1027.19 1027.31 1027.43 1027.51 1027.59 1027.59 1027.59 1027.63 1027.71 1027.75 1027.75 1027.83 1027.91 1027.99 1028.07 1028.11 1028.15 1028.19 1028.15
1018.79 1019.03 1019.51 1019.55 1019.35 1019.31 1019.55 1019.59 1019.59 1019.63 1019.63 1019.67 1019.71 1019.63 1019.87 1020.43 1020.51 1020.79 1021.39 1022.07 1022.39 1022.19 1021.87 1022.19 1022.51 1022.55 1022.71 1023.27 1023.51 1024.03 1024.23 1024.51 1024.67 1024.95 1025.39 1025.67 1025.79 1025.95 1026.15 1026.31 1026.39 1026.39 1026.47 1026.51 1026.55 1026.59 1026.67 1026.71 1026.79 1026.91 1026.99 1027.03 1027.07 1027.15 1027.27 1027.35 1027.47 1027.51 1027.59 1027.67 1027.67 1027.71 1027.75 1027.83 1027.91 1027.95 1027.95 1028.03 1028.11 1028.19 1028.23 1028.27 1028.27 1028.23
1018.71 1018.99 1019.47 1019.75 1019.47 1019.39 1019.59 1019.59 1019.59 1019.51 1019.47 1019.51 1019.71 1019.79 1019.91 1020.31 1020.59 1020.47 1021.15 1021.79 1022.23 1022.71 1022.23 1022.31 1022.27 1022.47 1022.47 1023.27 1023.27 1023.79 1024.19 1024.39 1024.63 1025.07 1025.47 1025.59 1025.51 1025.67 1025.87 1026.11 1026.23 1026.31 1026.35 1026.39 1026.47 1026.51 1026.59 1026.71 1026.79 1026.91 1027.03 1027.07 1027.15 1027.23 1027.35 1027.43 1027.51 1027.55 1027.63 1027.67 1027.71 1027.75 1027.83 1027.91 1027.95 1027.99 1027.99 1028.07 1028.15 1028.23 1028.31 1028.35 1028.31 1028.23
1018.87 1019.15 1019.43 1019.67 1019.67 1019.51 1019.71 1019.71 1019.59 1019.47 1019.51 1019.39 1019.59 1019.87 1019.95 1020.15 1020.35 1020.35 1020.59 1021.31 1022.15 1022.43 1022.47 1022.23 1022.55 1022.63 1022.59 1022.91 1023.27 1023.55 1023.83 1024.03 1024.39 1024.91 1025.23 1025.31 1025.27 1025.39 1025.55 1025.75 1025.91 1026.11 1026.23 1026.31 1026.39 1026.51 1026.63 1026.71 1026.79 1026.91 1026.99 1027.07 1027.15 1027.23 1027.35 1027.43 1027.47 1027.51 1027.59 1027.67 1027.75 1027.83 1027.91 1027.95 1027.99 1027.99 1028.03 1028.07 1028.15 1028.27 1028.35 1028.35 1028.27 1028.15
1019.03 1019.39 1019.67 1019.67 1019.67 1019.67 1019.95 1019.91 1019.79 1019.71 1019.59 1019.71 1019.67 1019.91 1020.11 1020.23 1020.51 1020.47 1020.83 1020.91 1021.59 1022.07 1022.55 1022.31 1022.43 1022.51 1022.71 1022.75 1022.87 1023.35 1023.59 1023.87 1024.31 1024.59 1024.91 1024.99 1024.99 1025.03 1025.23 1025.35 1025.51 1025.79 1025.99 1026.07 1026.23 1026.39 1026.51 1026.63 1026.75 1026.83 1026.91 1027.03 1027.11 1027.19 1027.27 1027.31 1027.39 1027.47 1027.59 1027.67 1027.75 1027.83 1027.95 1027.99 1028.03 1028.07 1028.11 1028.11 1028.11 1028.11 1028.23 1028.27 1028.23 1028.11
1019.07 1019.39 1019.63 1019.63 1019.75 1019.87 1020.11 1020.07 1019.99 1019.91 1019.91 1019.83 1019.91 1020.15 1020.27 1020.47 1020.55 1020.71 1020.91 1021.11 1021.15 1021.67 1022.23 1022.27 1022.03 1022.19 1022.43 1022.39 1022.67 1023.03 1023.63 1023.87 1023.99 1024.31 1024.63 1024.75 1024.71 1024.63 1024.71 1024.83 1024.91 1025.27 1025.79 1026.07 1026.27 1026.35 1026.39 1026.51 1026.59 1026.71 1026.79 1026.87 1026.99 1027.07 1027.15 1027.23 1027.31 1027.39 1027.51 1027.63 1027.75 1027.83 1027.95 1028.03 1028.11 1028.11 1028.07 1028.07 1028.07 1028.07 1028.15 1028.19 1028.15 1028.03
1018.95 1019.19 1019.43 1019.59 1019.71 1019.87 1020.11 1020.19 1020.15 1020.03 1020.11 1020.07 1020.23 1020.39 1020.43 1020.47 1020.67 1020.87 1020.83 1020.95 1021.31 1021.55 1021.83 1021.99 1022.23 1022.23 1022.47 1022.55 1022.63 1022.75 1023.03 1023.59 1023.83 1024.07 1024.23 1024.27 1024.27 1024.23 1024.43 1024.47 1024.59 1025.07 1025.63 1025.95 1026.23 1026.39 1026.43 1026.43 1026.43 1026.51 1026.59 1026.67 1026.79 1026.91 1027.03 1027.11 1027.19 1027.27 1027.43 1027.59 1027.71 1027.83 1027.95 1027.99 1027.99 1027.99 1028.03 1028.03 1028.03 1028.07 1028.07 1028.07 1028.03 1027.99
1018.95 1019.11 1019.35 1019.55 1019.71 1019.87 1019.99 1020.15 1020.23 1020.23 1020.27 1020.39 1020.51 1020.59 1020.55 1020.47 1020.83 1021.03 1020.99 1020.99 1021.23 1021.51 1021.71 1021.83 1021.83 1022.19 1022.11 1022.27 1022.63 1022.47 1022.47 1022.87 1023.19 1023.59 1024.03 1024.19 1023.83 1023.79 1024.23 1024.67 1024.79 1024.91 1025.27 1025.51 1025.67 1025.91 1026.11 1026.15 1026.31 1026.39 1026.47 1026.55 1026.63 1026.71 1026.79 1026.87 1026.95 1027.11 1027.31 1027.51 1027.67 1027.79 1027.83 1027.87 1027.91 1027.95 1027.99 1027.99 1027.99 1027.99 1027.99 1028.03 1027.99 1027.95
1019.11 1019.27 1019.35 1019.55 1019.91 1020.15 1020.23 1020.43 1020.55 1020.63 1020.71 1020.63 1020.91 1020.79 1020.91 1020.95 1021.03 1021.11 1021.15 1021.19 1021.31 1021.47 1021.59 1021.79 1021.91 1021.83 1022.23 1022.11 1022.07 1022.03 1022.31 1022.83 1023.03 1022.95 1023.27 1023.83 1023.75 1023.63 1023.99 1023.99 1024.51 1024.75 1024.95 1025.35 1025.55 1025.75 1025.95 1026.03 1026.11 1026.23 1026.35 1026.35 1026.35 1026.43 1026.55 1026.59 1026.79 1026.95 1027.19 1027.39 1027.59 1027.67 1027.71 1027.79 1027.87 1027.95 1027.95 1027.95 1027.95 1027.95 1027.95 1027.95 1027.91 1027.83
1019.31 1019.39 1019.67 1019.99 1020.15 1020.27 1020.43 1020.55 1020.67 1020.75 1020.79 1020.95 1021.15 1021.19 1021.15 1021.23 1021.31 1021.43 1021.43 1021.47 1021.63 1021.79 1021.95 1021.99 1021.87 1021.99 1022.11 1022.15 1022.23 1022.39 1022.43 1022.75 1022.79 1022.63 1022.63 1022.99 1023.03 1023.07 1023.63 1023.83 1023.63 1023.79 1024.35 1024.75 1025.11 1025.31 1025.39 1025.63 1025.75 1025.87 1026.11 1026.07 1026.23 1026.43 1026.47 1026.63 1026.75 1026.91 1027.15 1027.35 1027.43 1027.51 1027.63 1027.71 1027.83 1027.87 1027.91 1027.95 1027.95 1027.95 1027.91 1027.83 1027.71 1027.67
1019.55 1019.55 1019.83 1019.99 1020.15 1020.31 1020.51 1020.63 1020.75 1020.83 1020.95 1021.03 1021.11 1021.31 1021.35 1021.47 1021.59 1021.71 1021.83 1021.91 1021.91 1021.91 1022.11 1022.27 1022.39 1022.47 1022.59 1022.43 1022.31 1022.23 1022.07 1021.99 1022.03 1022.27 1022.47 1022.75 1022.71 1022.75 1023.07 1023.27 1023.31 1023.27 1023.71 1024.23 1024.63 1024.51 1024.67 1024.95 1025.27 1025.63 1025.71 1025.75 1026.11 1026.35 1026.55 1026.55 1026.71 1026.87 1027.07 1027.23 1027.27 1027.35 1027.47 1027.59 1027.67 1027.75 1027.83 1027.87 1027.87 1027.83 1027.75 1027.67 1027.63 1027.55
1019.95 1019.83 1020.11 1020.23 1020.19 1020.23 1020.39 1020.63 1020.71 1020.87 1021.03 1021.15 1021.31 1021.43 1021.51 1021.59 1021.71 1021.91 1022.03 1022.07 1022.11 1022.31 1022.31 1022.23 1022.23 1022.43 1022.51 1022.47 1022.63 1022.63 1022.39 1021.99 1021.99 1022.07 1022.23 1022.39 1022.55 1022.79 1023.15 1023.51 1023.07 1022.87 1023.11 1023.67 1023.95 1024.15 1024.19 1024.51 1024.91 1025.07 1025.15 1025.27 1025.75 1025.95 1026.03 1026.15 1026.43 1026.71 1026.95 1027.07 1027.11 1027.19 1027.31 1027.43 1027.51 1027.59 1027.63 1027.63 1027.67 1027.71 1027.71 1027.67 1027.59 1027.51
1020.51 1020.99 1020.87 1020.67 1020.59 1020.27 1020.35 1020.39 1020.59 1020.71 1020.79 1020.95 1021.15 1021.35 1021.51 1021.71 1021.83 1021.91 1021.95 1022.15 1022.27 1022.27 1022.43 1022.51 1022.47 1022.55 1022.63 1022.67 1022.71 1022.47 1022.51 1022.51 1022.07 1021.91 1022.03 1022.19 1022.27 1022.51 1022.71 1022.79 1022.95 1022.51 1022.51 1023.11 1023.43 1023.59 1023.75 1023.99 1024.19 1024.47 1024.39 1024.55 1024.95 1025.07 1025.39 1025.79 1026.11 1026.55 1026.79 1026.95 1026.95 1027.03 1027.19 1027.27 1027.35 1027.39 1027.39 1027.47 1027.51 1027.55 1027.55 1027.55 1027.55 1027.47
1021.47 1021.35 1021.31 1022.11 1022.47 1021.59 1020.75 1020.39 1020.43 1020.55 1020.75 1020.99 1021.23 1021.31 1021.43 1021.51 1021.55 1021.63 1021.83 1021.91 1021.95 1022.07 1022.35 1022.55 1022.55 1022.35 1022.23 1022.39 1022.31 1022.07 1022.15 1022.51 1022.83 1022.11 1022.07 1022.07 1022.03 1022.11 1022.27 1022.31 1022.31 1022.11 1021.99 1022.47 1022.95 1023.23 1023.31 1023.55 1023.83 1023.95 1023.71 1023.91 1024.39 1024.79 1025.15 1025.51 1025.95 1026.31 1026.63 1026.75 1026.83 1026.99 1027.11 1027.07 1027.11 1027.15 1027.23 1027.35 1027.39 1027.43 1027.43 1027.51 1027.51 1027.43
1020.99 1021.63 1021.83 1021.87 1021.99 1022.19 1022.39 1021.83 1020.87 1020.43 1020.63 1020.91 1021.15 1021.27 1021.31 1021.31 1021.31 1021.43 1021.51 1021.63 1021.83 1022.03 1022.07 1022.11 1022.27 1022.07 1021.99 1022.15 1021.87 1021.71 1021.67 1021.99 1022.19 1022.11 1021.87 1021.67 1021.83 1021.91 1022.11 1022.11 1022.07 1021.83 1021.67 1022.15 1022.55 1022.87 1023.07 1023.23 1023.47 1023.59 1023.31 1023.59 1024.11 1024.39 1024.67 1025.07 1025.55 1025.99 1026.39 1026.63 1026.79 1026.87 1026.83 1026.83 1026.95 1027.11 1027.19 1027.31 1027.39 1027.43 1027.43 1027.51 1027.59 1027.55
1021.51 1021.39 1021.99 1022.07 1022.07 1022.23 1022.27 1022.15 1022.55 1021.71 1021.39 1021.15 1021.07 1021.19 1021.19 1021.23 1021.27 1021.27 1021.35 1021.59 1021.71 1021.91 1022.03 1021.99 1021.99 1022.03 1022.07 1021.99 1021.75 1021.59 1021.55 1021.51 1021.51 1021.51 1021.63 1021.55 1021.55 1021.71 1021.91 1022.23 1022.23 1022.07 1021.95 1022.11 1022.51 1023.31 1022.83 1022.91 1023.11 1023.07 1022.99 1023.39 1023.91 1024.23 1024.63 1024.83 1025.27 1025.83 1026.23 1026.43 1026.55 1026.51 1026.55 1026.75 1026.87 1026.99 1027.11 1027.23 1027.31 1027.35 1027.39 1027.51 1027.59 1027.59
1021.15 1021.43 1021.71 1021.83 1021.91 1021.75 1021.71 1021.87 1022.11 1021.91 1021.83 1021.39 1021.19 1021.07 1021.11 1021.15 1021.19 1021.27 1021.91 1022.07 1021.99 1021.87 1021.87 1021.95 1021.99 1021.99 1022.07 1022.15 1021.95 1021.75 1021.51 1021.39 1021.23 1021.23 1021.27 1021.51 1021.79 1022.11 1022.47 1022.71 1022.71 1023.03 1022.75 1022.79 1023.19 1023.67 1023.39 1023.47 1023.75 1023.23 1022.67 1022.79 1023.63 1024.39 1024.99 1025.39 1025.59 1025.83 1026.03 1026.11 1026.19 1026.31 1026.47 1026.51 1026.63 1026.79 1026.95 1027.03 1027.15 1027.23 1027.31 1027.47 1027.55 1027.51
1021.19 1021.27 1021.39 1021.59 1021.79 1021.79 1021.87 1022.11 1022.07 1021.75 1021.63 1021.87 1021.55 1021.23 1021.27 1021.23 1021.27 1021.23 1021.95 1022.35 1022.27 1022.23 1022.15 1022.11 1022.11 1022.11 1022.07 1021.91 1021.79 1021.63 1021.43 1021.27 1021.23 1021.51 1021.75 1021.95 1022.19 1022.67 1022.99 1023.19 1023.15 1023.15 1023.11 1023.11 1023.11 1023.75 1023.79 1023.79 1023.75 1023.35 1022.71 1022.71 1023.39 1024.39 1024.99 1025.43 1025.71 1025.71 1025.79 1025.87 1025.99 1026.11 1026.23 1026.27 1026.39 1026.63 1026.71 1026.79 1026.99 1027.11 1027.23 1027.35 1027.47 1027.35
1021.31 1021.39 1021.47 1021.55 1021.63 1021.75 1021.95 1022.67 1022.71 1022.27 1021.75 1021.47 1021.35 1021.39 1021.47 1021.59 1021.63 1021.55 1021.79 1022.03 1022.15 1022.39 1022.35 1022.23 1022.11 1022.03 1021.95 1021.91 1021.83 1021.75 1021.59 1021.43 1021.27 1021.35 1021.79 1021.99 1022.07 1022.51 1022.79 1023.11 1023.39 1023.47 1023.31 1023.39 1023.35 1023.79 1024.07 1023.99 1023.87 1023.91 1023.39 1022.95 1023.07 1023.95 1024.71 1025.11 1025.43 1025.59 1025.59 1025.59 1025.75 1025.87 1025.95 1026.03 1026.23 1026.39 1026.43 1026.63 1026.83 1026.91 1027.07 1027.19 1027.23 1027.23
1021.31 1021.75 1022.19 1022.31 1022.55 1022.75 1023.11 1022.91 1022.55 1022.35 1022.15 1021.79 1021.71 1021.67 1021.79 1021.91 1021.91 1021.87 1021.67 1021.75 1021.99 1022.11 1022.11 1022.11 1021.99 1021.87 1021.83 1021.79 1021.79 1021.75 1021.79 1021.71 1021.63 1021.71 1022.03 1022.43 1022.59 1022.55 1022.67 1022.87 1023.19 1023.39 1023.35 1023.55 1023.55 1023.83 1024.03 1024.31 1024.07 1023.31 1023.15 1023.23 1023.11 1023.27 1024.47 1024.91 1025.19 1025.39 1025.43 1025.55 1025.71 1025.71 1025.75 1025.83 1025.99 1026.03 1026.19 1026.47 1026.59 1026.71 1026.87 1026.91 1026.95 1027.07
1021.43 1021.83 1022.67 1023.11 1023.15 1023.19 1023.11 1022.95 1022.79 1022.71 1022.75 1022.63 1022.43 1022.11 1021.91 1021.87 1021.83 1021.91 1021.75 1021.59 1021.59 1021.63 1021.63 1021.63 1021.67 1021.63 1021.71 1021.71 1021.75 1021.75 1021.75 1021.79 1021.87 1022.03 1022.07 1022.15 1022.23 1022.43 1022.55 1022.55 1022.55 1022.75 1023.23 1023.75 1023.83 1023.63 1023.47 1023.43 1023.19 1022.83 1022.91 1023.27 1023.75 1023.75 1024.59 1024.87 1024.83 1024.99 1025.15 1025.35 1025.55 1025.43 1025.55 1025.71 1025.87 1025.75 1026.03 1026.23 1026.31 1026.47 1026.59 1026.59 1026.63 1026.79
1021.31 1021.91 1022.63 1023.23 1023.51 1023.39 1023.23 1023.11 1023.03 1022.95 1022.95 1022.95 1022.87 1022.59 1022.35 1022.51 1022.63 1022.43 1021.91 1021.63 1021.55 1021.51 1021.43 1021.39 1021.43 1021.47 1021.51 1021.63 1021.67 1021.71 1021.79 1021.91 1022.15 1022.51 1022.63 1022.75 1022.83 1022.79 1022.63 1022.35 1022.59 1023.59 1024.27 1023.91 1023.75 1023.55 1023.35 1023.19 1023.15 1023.03 1023.15 1023.27 1023.63 1023.75 1023.75 1023.91 1024.43 1024.75 1024.87 1024.99 1025.11 1025.03 1025.23 1025.47 1025.63 1025.55 1025.83 1025.99 1026.11 1026.27 1026.39 1026.39 1026.31 1026.47
1022.39 1022.71 1023.07 1023.31 1023.35 1023.47 1023.43 1023.35 1023.19 1023.11 1023.07 1023.03 1022.75 1022.59 1022.67 1022.71 1022.63 1022.39 1022.23 1021.83 1021.59 1021.47 1021.39 1021.23 1021.19 1021.31 1021.39 1021.39 1021.51 1021.51 1021.51 1021.91 1022.31 1022.43 1022.67 1022.83 1022.91 1022.95 1022.91 1022.87 1023.07 1023.87 1024.19 1023.91 1023.63 1023.55 1023.43 1023.71 1023.67 1023.55 1023.75 1023.91 1024.03 1024.19 1024.31 1024.23 1024.15 1024.11 1024.31 1024.51 1024.51 1024.51 1024.83 1025.15 1025.35 1025.47 1025.55 1025.71 1025.87 1026.07 1026.15 1026.07 1026.07 1026.15
1022.91 1022.95 1023.15 1023.39 1023.51 1023.39 1023.27 1023.19 1023.07 1022.91 1022.91 1022.79 1022.91 1023.07 1022.95 1022.83 1022.75 1022.55 1022.11 1021.59 1021.31 1021.19 1021.11 1021.15 1021.11 1021.03 1020.95 1020.99 1021.15 1021.19 1021.83 1022.23 1022.15 1022.23 1022.47 1022.63 1022.79 1023.03 1023.23 1023.27 1023.35 1023.67 1023.83 1023.75 1023.67 1023.75 1023.83 1024.03 1023.95 1023.99 1024.35 1024.51 1024.67 1024.63 1024.67 1024.71 1024.47 1024.39 1024.47 1024.43 1024.39 1024.47 1024.63 1024.67 1024.83 1024.95 1025.11 1025.27 1025.39 1025.55 1025.75 1025.87 1025.99 1026.07
1023.39 1023.51 1023.43 1023.39 1023.35 1023.31 1023.15 1023.03 1022.83 1022.63 1022.75 1022.91 1022.95 1022.95 1022.87 1022.75 1022.63 1022.51 1022.15 1021.59 1021.31 1021.23 1021.15 1021.15 1021.07 1020.99 1021.03 1021.03 1021.11 1021.67 1022.19 1022.35 1022.35 1022.35 1022.47 1022.63 1022.83 1023.15 1023.39 1023.71 1023.79 1023.91 1024.03 1024.11 1024.15 1024.19 1024.27 1024.39 1024.43 1024.35 1024.31 1024.63 1024.99 1025.23 1025.35 1024.95 1024.87 1024.79 1024.83 1024.63 1024.51 1024.39 1024.35 1024.47 1024.63 1024.75 1024.87 1024.99 1025.15 1025.31 1025.51 1025.67 1025.75 1025.87
1023.47 1023.63 1023.59 1023.47 1023.35 1023.15 1022.99 1022.75 1022.59 1022.55 1022.79 1022.87 1022.87 1022.83 1022.79 1022.71 1022.47 1022.19 1021.91 1021.51 1021.31 1021.35 1021.23 1021.03 1021.11 1021.23 1021.35 1021.47 1021.83 1022.07 1022.23 1022.43 1022.47 1022.47 1022.63 1022.67 1022.91 1023.23 1023.51 1023.71 1023.79 1023.91 1024.07 1024.15 1024.27 1024.35 1024.35 1024.35 1024.47 1024.47 1024.55 1024.75 1025.07 1025.27 1025.43 1025.51 1025.31 1025.11 1024.91 1024.87 1024.83 1024.63 1024.55 1024.51 1024.55 1024.71 1024.83 1024.91 1025.15 1025.35 1025.55 1025.71 1025.83 1025.83
1023.39 1023.31 1023.27 1023.15 1023.11 1022.99 1022.99 1022.95 1022.87 1022.83 1022.75 1022.79 1022.75 1022.71 1022.67 1022.55 1022.31 1022.11 1021.95 1021.67 1021.47 1021.43 1021.23 1021.23 1021.39 1021.83 1022.15 1022.11 1021.95 1021.83 1021.87 1022.03 1022.31 1022.47 1022.71 1022.79 1023.11 1023.39 1023.71 1023.91 1024.11 1024.11 1024.07 1024.11 1024.15 1024.23 1024.31 1024.43 1024.59 1024.75 1024.95 1025.07 1025.23 1025.43 1025.39 1025.39 1025.35 1025.15 1024.99 1024.99 1024.91 1024.79 1024.87 1024.83 1024.79 1024.79 1024.95 1025.15 1025.27 1025.39 1025.51 1025.63 1025.75 1025.75
1023.63 1023.47 1023.31 1023.19 1023.11 1023.15 1023.07 1023.11 1023.07 1022.99 1022.83 1022.71 1022.59 1022.51 1022.47 1022.39 1022.35 1022.23 1022.19 1022.27 1022.27 1022.07 1021.91 1022.11 1022.51 1022.71 1022.75 1022.83 1022.83 1022.87 1022.71 1022.63 1022.67 1022.71 1022.83 1022.95 1023.27 1023.43 1023.71 1023.99 1024.27 1024.31 1024.19 1024.11 1024.19 1024.31 1024.43 1024.55 1024.63 1024.71 1025.07 1025.23 1025.31 1025.35 1025.47 1025.63 1025.79 1025.63 1025.43 1025.27 1025.27 1025.31 1024.99 1024.87 1024.83 1024.91 1025.03 1025.07 1025.23 1025.43 1025.55 1025.59 1025.59 1025.51
1024.27 1023.91 1023.43 1023.11 1023.15 1023.07 1022.99 1022.87 1022.83 1022.71 1022.63 1022.51 1022.47 1022.43 1022.31 1022.23 1022.19 1022.19 1022.15 1022.11 1022.11 1022.15 1022.43 1022.79 1022.99 1023.11 1023.07 1023.03 1023.23 1023.35 1023.55 1023.71 1023.55 1023.43 1023.43 1023.47 1023.51 1023.47 1023.51 1023.99 1024.47 1024.47 1024.51 1024.43 1024.39 1024.43 1024.47 1024.59 1024.75 1024.83 1024.99 1025.19 1025.43 1025.43 1025.47 1025.63 1025.71 1025.71 1025.63 1025.39 1025.27 1025.11 1024.95 1024.91 1024.91 1024.87 1024.91 1025.07 1025.27 1025.43 1025.51 1025.51 1025.51 1025.47
1024.51 1023.87 1023.27 1022.83 1022.59 1022.63 1022.63 1022.59 1022.47 1022.35 1022.27 1022.35 1022.39 1022.31 1022.19 1022.07 1021.99 1022.03 1022.07 1022.07 1022.07 1022.27 1022.63 1022.91 1023.15 1023.27 1023.31 1023.43 1023.59 1023.71 1023.83 1023.87 1023.83 1023.83 1023.95 1023.91 1023.95 1023.99 1023.79 1024.15 1024.43 1024.59 1024.71 1024.75 1024.63 1024.59 1024.59 1024.63 1024.75 1024.91 1024.99 1025.07 1025.19 1025.35 1025.59 1025.71 1025.63 1025.59 1025.59 1025.39 1025.19 1025.15 1024.99 1024.91 1024.91 1024.99 1024.99 1025.15 1025.39 1025.43 1025.51 1025.43 1025.43 1025.51
1024.99 1024.27 1023.63 1023.07 1022.75 1022.39 1022.15 1022.03 1022.03 1021.99 1022.11 1022.31 1022.23 1022.15 1022.11 1022.07 1021.87 1021.79 1021.87 1021.99 1022.39 1022.67 1022.83 1023.07 1023.27 1023.39 1023.59 1023.79 1023.79 1023.83 1023.99 1024.07 1024.11 1024.11 1024.07 1024.23 1024.23 1024.27 1024.39 1024.51 1024.59 1024.59 1024.71 1024.71 1024.67 1024.63 1024.67 1024.83 1024.87 1024.95 1025.07 1025.11 1025.07 1025.11 1025.31 1025.55 1025.55 1025.47 1025.43 1025.23 1025.07 1025.07 1024.99 1024.95 1024.99 1025.07 1025.15 1025.27 1025.35 1025.47 1025.47 1025.43 1025.35 1025.43
1024.43 1023.83 1023.47 1022.75 1022.19 1021.99 1021.99 1022.03 1022.27 1022.31 1022.27 1022.19 1022.11 1022.15 1022.11 1022.03 1021.99 1022.03 1021.99 1022.03 1022.35 1022.59 1022.91 1023.15 1023.43 1023.67 1023.87 1023.91 1024.03 1024.19 1024.35 1024.47 1024.67 1024.79 1024.75 1024.71 1024.75 1024.91 1024.99 1025.23 1025.11 1025.07 1024.99 1024.95 1024.87 1024.79 1024.75 1024.79 1024.83 1024.95 1024.99 1024.99 1024.99 1024.95 1024.87 1024.95 1025.31 1025.35 1025.19 1025.15 1025.11 1025.15 1025.15 1025.07 1025.11 1025.15 1025.19 1025.19 1025.23 1025.39 1025.47 1025.39 1025.31 1025.23
1024.35 1023.87 1023.07 1022.59 1022.67 1022.95 1023.39 1023.39 1023.35 1023.11 1022.83 1022.67 1022.63 1022.59 1022.55 1022.43 1022.31 1022.19 1022.19 1022.27 1022.43 1022.75 1023.03 1023.31 1023.63 1023.95 1024.19 1024.43 1024.63 1024.79 1024.91 1025.03 1025.15 1025.23 1025.39 1025.31 1025.27 1025.39 1025.39 1025.47 1025.47 1025.39 1025.39 1025.35 1025.27 1025.07 1024.95 1024.87 1024.83 1024.91 1025.03 1025.19 1025.31 1025.47 1025.03 1024.99 1024.91 1025.03 1025.07 1025.19 1025.11 1025.11 1025.11 1025.07 1025.15 1025.19 1025.27 1025.35 1025.31 1025.35 1025.47 1025.39 1025.23 1025.11
1024.07 1023.55 1023.47 1023.47 1023.51 1023.67 1023.95 1023.99 1023.99 1023.75 1023.43 1023.35 1023.35 1023.15 1023.11 1023.27 1023.27 1022.95 1022.67 1022.63 1022.87 1023.03 1023.19 1023.39 1023.71 1024.03 1024.47 1024.79 1024.95 1025.07 1025.19 1025.19 1025.43 1025.47 1025.51 1025.55 1025.67 1025.71 1025.79 1025.83 1025.83 1025.79 1025.75 1025.67 1025.55 1025.47 1025.31 1025.19 1024.91 1024.87 1025.03 1025.19 1025.31 1025.47 1025.19 1025.15 1025.07 1025.07 1025.15 1025.35 1025.31 1025.07 1025.11 1025.15 1025.23 1025.27 1025.23 1025.27 1025.27 1025.31 1025.27 1025.23 1025.11 1024.95
1024.11 1024.23 1024.43 1024.43 1024.43 1024.39 1024.47 1024.47 1024.47 1024.47 1024.27 1024.11 1023.91 1023.71 1023.83 1023.79 1023.67 1023.47 1023.19 1023.35 1023.63 1023.79 1023.83 1023.99 1024.35 1024.59 1024.87 1024.99 1025.15 1025.35 1025.43 1025.51 1025.55 1025.67 1025.79 1025.91 1026.03 1026.15 1026.23 1026.19 1026.19 1026.19 1026.07 1025.83 1025.67 1025.47 1025.39 1025.31 1025.11 1024.75 1024.51 1024.71 1024.95 1025.11 1025.47 1025.43 1025.39 1025.23 1025.27 1025.39 1025.43 1025.27 1025.15 1025.15 1025.23 1025.31 1025.27 1025.11 1025.11 1025.03 1024.99 1025.03 1024.99 1024.79
1024.59 1024.79 1024.99 1025.03 1025.07 1024.91 1024.91 1024.91 1024.83 1024.87 1024.71 1024.59 1024.51 1024.63 1024.47 1024.23 1024.23 1024.11 1023.87 1023.95 1024.07 1024.15 1024.31 1024.51 1024.75 1024.95 1025.15 1025.27 1025.43 1025.51 1025.59 1025.71 1025.79 1025.99 1026.11 1026.11 1026.15 1026.23 1026.27 1026.31 1026.39 1026.23 1026.11 1025.79 1025.43 1025.11 1024.79 1024.67 1024.63 1024.59 1024.59 1024.67 1025.03 1025.39 1025.39 1025.47 1025.43 1025.23 1025.15 1025.19 1025.23 1025.23 1025.15 1025.23 1025.31 1025.35 1025.31 1025.19 1024.99 1024.91 1024.91 1024.83 1024.67 1024.55
1025.07 1025.19 1025.35 1025.43 1025.39 1025.35 1025.27 1025.27 1025.23 1025.27 1025.27 1025.11 1025.03 1025.03 1024.83 1024.75 1024.75 1024.59 1024.35 1024.15 1024.23 1024.47 1024.67 1024.91 1025.07 1025.27 1025.43 1025.55 1025.67 1025.79 1025.91 1026.07 1026.15 1026.23 1026.31 1026.39 1026.31 1026.27 1026.31 1026.31 1026.27 1026.03 1025.75 1025.43 1025.03 1024.67 1024.59 1024.67 1024.75 1024.67 1024.79 1024.99 1025.11 1025.11 1025.11 1025.19 1025.19 1025.11 1025.07 1024.95 1025.03 1025.15 1025.19 1025.23 1025.27 1025.31 1025.31 1025.11 1024.99 1025.03 1025.03 1024.91 1024.75 1024.55
1025.63 1025.75 1025.91 1025.99 1026.03 1025.91 1025.83 1025.67 1025.51 1025.51 1025.51 1025.43 1025.39 1025.35 1025.19 1025.11 1025.19 1025.19 1024.95 1024.83 1024.79 1025.03 1025.19 1025.27 1025.43 1025.59 1025.87 1025.99 1026.11 1026.23 1026.35 1026.35 1026.31 1026.31 1026.27 1026.31 1026.27 1026.19 1026.07 1025.79 1025.59 1025.51 1025.47 1025.39 1025.27 1025.03 1024.71 1024.63 1024.59 1024.55 1024.59 1024.79 1024.87 1025.03 1025.11 1025.39 1025.35 1025.11 1025.11 1024.83 1024.83 1025.03 1025.07 1025.11 1025.11 1025.19 1025.19 1025.03 1025.07 1025.11 1025.11 1025.03 1024.79 1024.59
1026.23 1026.27 1026.23 1026.35 1026.51 1026.55 1026.51 1026.35 1026.11 1025.99 1025.95 1025.67 1025.59 1025.51 1025.35 1025.39 1025.47 1025.51 1025.55 1025.59 1025.59 1025.63 1025.75 1025.87 1025.95 1026.03 1026.11 1026.23 1026.31 1026.35 1026.35 1026.43 1026.47 1026.47 1026.43 1026.27 1026.03 1025.75 1025.67 1025.63 1025.67 1025.43 1025.51 1025.43 1025.07 1024.79 1024.75 1024.59 1024.71 1024.75 1024.63 1024.71 1024.91 1025.27 1025.51 1025.51 1025.63 1025.47 1025.11 1024.91 1024.95 1024.99 1024.99 1024.95 1024.95 1024.95 1024.95 1025.03 1025.15 1025.15 1025.07 1024.87 1024.79 1024.79
1026.55 1026.55 1026.63 1026.79 1026.91 1026.99 1026.95 1026.75 1026.51 1026.35 1026.35 1026.03 1025.71 1025.55 1025.35 1025.47 1025.71 1025.91 1026.07 1026.15 1026.11 1026.11 1026.19 1026.19 1026.27 1026.27 1026.31 1026.35 1026.43 1026.51 1026.55 1026.59 1026.59 1026.63 1026.55 1026.35 1026.03 1025.79 1025.63 1025.47 1025.31 1025.19 1025.03 1024.91 1024.71 1024.63 1024.79 1024.91 1024.99 1024.99 1024.87 1024.79 1024.91 1025.19 1025.43 1025.43 1025.31 1025.23 1025.07 1024.95 1024.87 1024.83 1024.83 1024.87 1024.91 1024.83 1024.83 1024.91 1025.07 1025.07 1024.99 1024.87 1025.07 1025.39
1026.79 1026.99 1027.23 1027.43 1027.51 1027.55 1027.43 1027.19 1027.07 1026.91 1026.75 1026.47 1026.35 1026.19 1025.99 1026.07 1026.27 1026.35 1026.43 1026.47 1026.43 1026.47 1026.47 1026.47 1026.47 1026.47 1026.55 1026.63 1026.71 1026.79 1026.79 1026.79 1026.67 1026.55 1026.11 1025.83 1025.71 1025.59 1025.39 1025.23 1025.07 1025.03 1024.91 1024.91 1024.87 1024.87 1024.91 1024.95 1025.07 1024.99 1025.07 1025.15 1025.15 1025.23 1025.35 1025.27 1025.23 1025.11 1025.03 1024.87 1024.75 1024.79 1024.71 1024.63 1024.59 1024.67 1024.79 1024.75 1024.63 1024.63 1024.71 1024.75 1024.59 1024.39
1027.15 1027.31 1027.55 1027.71 1027.75 1027.75 1027.67 1027.51 1027.39 1027.31 1027.19 1026.95 1026.91 1026.91 1026.79 1026.67 1026.75 1026.83 1026.83 1026.75 1026.67 1026.59 1026.59 1026.55 1026.55 1026.55 1026.59 1026.67 1026.75 1026.79 1026.79 1026.71 1026.47 1026.27 1026.19 1025.83 1025.67 1025.55 1025.51 1025.15 1025.07 1024.99 1024.99 1024.91 1024.87 1024.95 1024.99 1024.99 1024.99 1025.07 1025.23 1025.35 1025.35 1025.35 1025.27 1025.27 1025.23 1025.15 1024.99 1024.91 1024.83 1024.63 1024.47 1024.51 1024.51 1024.43 1024.51 1024.47 1024.15 1024.11 1024.15 1024.27 1024.35 1024.31
Thickness
5637 5636 5635 5633 5632 5633 5634 5633 5633 5633 5631 5630 5628 5627 5624 5619 5613 5610 5608 5606 5605 5606 5608 5607 5604 5602 5601 5598 5596 5595 5593 5592 5591 5589 5588 5586 5585 5584 5583 5582 5581 5580 5580 5579 5579 5578 5577 5577 5576 5576 5575 5574 5574 5574 5573 5573 5572 5571 5570 5570 5570 5570 5569 5568 5567 5567 5566 5565 5565 5564 5564 5564 5563 5563
5636 5634 5633 5633 5632 5632 5632 5631 5632 5632 5631 5630 5629 5626 5625 5622 5618 5613 5608 5605 5606 5607 5607 5607 5605 5601 5599 5597 5595 5593 5591 5590 5588 5586 5585 5583 5582 5581 5581 5579 5578 5578 5577 5576 5576 5576 5575 5575 5574 5574 5573 5572 5572 5571 5571 5571 5570 5569 5568 5568 5568 5567 5566 5566 5565 5564 5563 5562 5562 5561 5561 5560 5559 5559
5634 5632 5631 5631 5630 5630 5629 5629 5629 5630 5630 5629 5629 5626 5624 5622 5619 5617 5611 5605 5606 5609 5607 5605 5604 5602 5599 5596 5594 5592 5589 5588 5586 5585 5582 5581 5580 5579 5578 5577 5577 5575 5575 5573 5573 5573 5572 5572 5572 5571 5570 5570 5569 5569 5569 5568 5568 5567 5566 5566 5565 5564 5564 5563 5562 5561 5560 5559 5558 5557 5557 5556 5555 5555
5632 5630 5629 5628 5629 5628 5627 5627 5626 5627 5627 5627 5626 5624 5622 5620 5618 5617 5612 5605 5604 5609 5608 5604 5603 5602 5599 5596 5594 5590 5588 5586 5584 5583 5581 5579 5577 5576 5575 5575 5574 5573 5572 5571 5571 5570 5570 5569 5569 5568 5568 5567 5567 5566 5566 5565 5564 5564 5563 5562 5562 5561 5560 5559 5558 5557 5556 5555 5554 5553 5553 5552 5551 5551
5630 5628 5625 5624 5626 5627 5625 5624 5624 5624 5624 5624 5624 5623 5621 5619 5616 5615 5612 5605 5602 5604 5606 5604 5602 5601 5599 5595 5593 5589 5587 5585 5583 5580 5579 5577 5575 5574 5573 5573 5572 5571 5570 5569 5568 5567 5567 5567 5566 5566 5565 5564 5564 5564 5563 5562 5562 5561 5560 5559 5558 5558 5557 5556 5555 5554 5553 5552 5551 5550 5549 5548 5548 5547
5628 5626 5623 5621 5622 5624 5622 5622 5622 5622 5622 5622 5621 5621 5620 5616 5614 5615 5613 5606 5600 5599 5601 5601 5599 5599 5598 5594 5591 5589 5586 5583 5581 5579 5576 5575 5574 5573 5573 5572 5570 5570 5568 5568 5567 5566 5565 5565 5564 5563 5563 5562 5562 5561 5560 5559 5559 5558 5557 5556 5555 5555 5554 5553 5552 5551 5550 5549 5548 5547 5546 5545 5544 5543
5625 5623 5621 5619 5620 5620 5618 5618 5620 5620 5620 5621 5619 5618 5617 5614 5612 5613 5612 5607 5601 5597 5598 5599 5597 5596 5595 5593 5591 5588 5585 5583 5580 5577 5575 5574 5573 5572 5571 5571 5569 5569 5568 5566 5565 5564 5564 5563 5562 5562 5560 5560 5559 5559 5558 5557 5556 5556 5555 5553 5552 5552 5550 5549 5548 5548 5547 5546 5545 5544 5543 5542 5541 5539
5623 5620 5618 5617 5617 5617 5615 5614 5616 5617 5617 5618 5617 5614 5614 5612 5610 5609 5609 5607 5603 5598 5595 5596 5596 5594 5592 5593 5590 5586 5583 5582 5579 5577 5575 5573 5573 5572 5572 5570 5569 5569 5567 5566 5564 5563 5562 5561 5561 5560 5559 5558 5558 5557 5556 5555 5554 5553 5552 5551 5549 5548 5547 5546 5544 5544 5543 5543 5542 5541 5540 5538 5536 5535
5620 5617 5615 5615 5614 5613 5612 5611 5612 5613 5613 5614 5613 5611 5610 5609 5607 5606 5606 5605 5603 5599 5595 5595 5595 5593 5591 5591 5590 5586 5582 5580 5578 5576 5574 5574 5573 5573 5573 5571 5570 5569 5566 5564 5562 5561 5561 5560 5559 5558 5557 5557 5556 5555 5554 5553 5552 5550 5549 5547 5546 5544 5543 5542 5541 5540 5540 5539 5539 5537 5536 5534 5532 5530
5618 5616 5614 5613 5612 5610 5609 5609 5609 5609 5609 5609 5608 5606 5606 5606 5604 5603 5602 5602 5600 5598 5595 5594 5593 5592 5589 5588 5587 5586 5583 5579 5578 5576 5574 5573 5574 5574 5573 5570 5569 5569 5566 5563 5561 5560 5559 5559 5558 5557 5555 5555 5554 5553 5551 5550 5549 5547 5546 5544 5542 5541 5539 5538 5538 5537 5536 5535 5534 5533 5531 5529 5527 5525
5615 5614 5613 5611 5610 5608 5607 5606 5605 5605 5605 5604 5604 5602 5602 5603 5601 5599 5599 5599 5597 5596 5594 5593 5591 5590 5589 5587 5586 5586 5585 5581 5579 5577 5574 5572 5573 5575 5573 5569 5567 5567 5565 5562 5560 5559 5558 5557 5556 5555 5554 5553 5552 5551 5549 5548 5546 5545 5542 5540 5539 5537 5536 5534 5534 5532 5531 5530 5530 5528 5526 5525 5523 5520
5612 5611 5610 5608 5606 5604 5603 5603 5601 5601 5600 5600 5599 5598 5598 5598 5597 5596 5595 5595 5593 5592 5591 5590 5590 5589 5587 5586 5584 5584 5584 5580 5578 5578 5575 5573 5573 5573 5572 5570 5568 5566 5563 5561 5559 5557 5556 5555 5554 5553 5552 5551 5550 5549 5547 5545 5543 5542 5539 5537 5535 5533 5532 5530 5529 5527 5526 5525 5524 5523 5521 5519 5517 5516
5608 5608 5606 5604 5603 5601 5600 5599 5598 5597 5597 5596 5594 5593 5593 5592 5592 5591 5590 5589 5588 5587 5586 5585 5585 5585 5583 5583 5582 5580 5580 5579 5578 5578 5576 5574 5574 5573 5571 5570 5570 5568 5564 5560 5557 5556 5555 5554 5553 5551 5550 5549 5548 5545 5543 5541 5539 5537 5535 5533 5531 5529 5528 5526 5524 5522 5520 5519 5518 5516 5515 5514 5512 5511
5604 5604 5602 5600 5599 5598 5597 5596 5595 5594 5594 5593 5591 5590 5589 5588 5587 5585 5584 5583 5583 5582 5581 5580 5579 5579 5578 5578 5578 5577 5578 5578 5577 5576 5574 5573 5572 5572 5570 5568 5569 5569 5565 5560 5556 5555 5555 5554 5551 5549 5547 5547 5544 5541 5539 5537 5535 5533 5531 5528 5527 5525 5523 5521 5518 5517 5515 5513 5512 5510 5509 5508 5507 5506
5599 5598 5597 5597 5597 5597 5595 5593 5593 5592 5591 5590 5588 5586 5585 5583 5582 5581 5579 5578 5578 5577 5577 5576 5576 5574 5573 5573 5573 5573 5574 5574 5575 5574 5572 5571 5570 5568 5566 5565 5566 5568 5566 5561 5558 5556 5554 5551 5549 5547 5546 5544 5542 5540 5537 5534 5530 5528 5525 5523 5522 5520 5518 5516 5513 5511 5509 5507 5506 5505 5503 5502 5501 5500
5590 5588 5589 5588 5589 5591 5592 5592 5591 5590 5588 5587 5584 5582 5581 5579 5578 5577 5576 5575 5575 5574 5572 5571 5571 5570 5570 5570 5569 5570 5570 5568 5569 5571 5569 5568 5568 5566 5564 5563 5563 5565 5565 5560 5557 5556 5553 5550 5547 5546 5546 5544 5542 5538 5534 5531 5527 5524 5520 5518 5517 5515 5512 5510 5508 5506 5504 5502 5500 5498 5496 5495 5494 5493
5583 5581 5581 5580 5578 5580 5583 5586 5588 5588 5585 5583 5581 5579 5578 5577 5576 5575 5574 5574 5573 5571 5569 5567 5567 5567 5568 5567 5567 5569 5569 5565 5564 5566 5566 5566 5565 5563 5562 5561 5561 5562 5562 5558 5555 5553 5552 5548 5544 5543 5544 5544 5541 5535 5530 5527 5522 5518 5515 5512 5510 5509 5507 5505 5503 5501 5498 5496 5493 5492 5489 5487 5486 5485
5578 5577 5575 5575 5574 5572 5572 5574 5579 5582 5581 5579 5576 5575 5575 5574 5574 5573 5573 5572 5570 5568 5566 5565 5564 5565 5564 5565 5565 5567 5567 5564 5562 5563 5563 5564 5562 5561 5559 5558 5557 5559 5559 5556 5551 5547 5546 5545 5540 5539 5539 5539 5537 5533 5528 5523 5518 5512 5509 5507 5504 5503 5502 5500 5498 5495 5492 5489 5487 5485 5482 5480 5478 5477
5575 5573 5571 5570 5571 5571 5569 5568 5570 5573 5574 5572 5572 5572 5571 5571 5571 5571 5570 5569 5567 5565 5564 5562 5562 5561 5560 5561 5562 5563 5563 5563 5562 5562 5561 5560 5558 5557 5555 5552 5551 5552 5552 5551 5546 5540 5540 5538 5534 5533 5534 5533 5530 5528 5523 5517 5512 5507 5504 5502 5499 5497 5495 5494 5491 5488 5485 5482 5480 5478 5476 5473 5471 5471
5572 5571 5569 5568 5568 5568 5569 5568 5567 5568 5567 5567 5568 5569 5568 5567 5568 5567 5565 5563 5563 5561 5560 5559 5558 5557 5557 5557 5557 5558 5559 5559 5559 5558 5556 5554 5551 5548 5546 5545 5545 5543 5542 5542 5538 5533 5531 5529 5525 5526 5528 5526 5523 5519 5514 5509 5504 5501 5498 5495 5493 5491 5488 5487 5485 5481 5479 5476 5474 5471 5468 5465 5464 5463
5569 5569 5567 5565 5564 5564 5563 5561 5561 5563 5564 5564 5564 5564 5564 5563 5563 5562 5559 5557 5557 5556 5555 5554 5554 5554 5553 5553 5553 5554 5554 5554 5554 5552 5549 5547 5544 5540 5538 5537 5537 5535 5535 5536 5532 5527 5525 5523 5518 5516 5519 5519 5515 5510 5505 5501 5497 5495 5492 5489 5487 5484 5482 5480 5478 5475 5472 5470 5468 5465 5462 5458 5456 5456
5565 5564 5563 5561 5560 5558 5556 5553 5553 5558 5560 5560 5560 5559 5558 5557 5556 5556 5555 5552 5552 5550 5549 5549 5549 5549 5549 5549 5548 5548 5548 5548 5548 5546 5542 5540 5539 5536 5533 5531 5529 5527 5526 5528 5526 5521 5518 5516 5512 5510 5510 5511 5509 5503 5499 5496 5491 5488 5486 5484 5481 5478 5475 5474 5472 5469 5467 5465 5462 5459 5456 5453 5451 5450
5560 5558 5554 5553 5552 5550 5548 5547 5549 5552 5553 5553 5553 5553 5552 5551 5549 5550 5550 5549 5548 5546 5545 5545 5545 5544 5544 5543 5543 5542 5541 5541 5540 5539 5536 5534 5533 5531 5529 5526 5523 5521 5519 5519 5518 5514 5511 5507 5506 5507 5506 5503 5500 5497 5493 5490 5487 5484 5481 5479 5475 5472 5469 5468 5466 5464 5461 5459 5456 5453 5450 5448 5446 5445
5557 5552 5547 5543 5543 5542 5542 5542 5543 5544 5545 5544 5544 5545 5545 5544 5543 5544 5544 5545 5544 5543 5542 5541 5540 5540 5539 5538 5537 5536 5534 5533 5532 5531 5530 5528 5526 5524 5522 5521 5519 5514 5512 5511 5509 5507 5505 5502 5502 5502 5500 5495 5490 5486 5482 5480 5480 5478 5475 5473 5470 5466 5463 5462 5460 5459 5457 5453 5450 5447 5443 5441 5440 5439
5552 5547 5541 5537 5536 5536 5536 5536 5536 5537 5537 5537 5538 5538 5538 5537 5536 5537 5538 5539 5539 5538 5538 5538 5536 5536 5534 5533 5531 5530 5528 5527 5525 5523 5520 5518 5516 5514 5514 5514 5510 5503 5499 5500 5500 5499 5498 5497 5495 5493 5491 5487 5482 5477 5473 5471 5470 5469 5468 5467 5464 5461 5459 5457 5454 5453 5450 5446 5443 5440 5437 5436 5435 5434
5542 5538 5535 5532 5531 5530 5530 5530 5530 5530 5531 5531 5532 5532 5531 5530 5530 5530 5531 5533 5533 5533 5533 5533 5532 5532 5530 5527 5526 5524 5522 5521 5520 5518 5513 5509 5506 5503 5503 5504 5501 5495 5490 5490 5491 5490 5487 5486 5484 5481 5477 5475 5471 5468 5465 5462 5460 5458 5458 5457 5455 5453 5451 5450 5448 5445 5443 5441 5438 5435 5432 5431 5430 5428
5531 5530 5528 5527 5526 5525 5525 5526 5526 5526 5526 5526 5525 5525 5524 5523 5523 5523 5525 5527 5528 5527 5527 5526 5525 5525 5524 5522 5520 5516 5514 5514 5514 5511 5506 5501 5497 5494 5491 5491 5489 5485 5482 5480 5479 5478 5474 5471 5470 5469 5465 5461 5459 5456 5454 5453 5451 5449 5447 5446 5445 5442 5440 5441 5441 5438 5436 5433 5432 5430 5427 5424 5423 5422
5523 5521 5522 5521 5521 5521 5522 5522 5522 5522 5521 5519 5519 5518 5518 5517 5517 5516 5518 5520 5521 5520 5520 5519 5517 5516 5516 5513 5510 5505 5503 5503 5503 5502 5498 5494 5490 5486 5481 5478 5477 5474 5472 5469 5467 5464 5461 5459 5457 5458 5456 5452 5448 5446 5444 5442 5441 5440 5437 5436 5435 5433 5433 5436 5436 5433 5429 5427 5425 5421 5419 5416 5415 5414
5515 5515 5514 5514 5515 5515 5516 5516 5517 5517 5515 5513 5512 5512 5511 5511 5510 5510 5511 5512 5513 5512 5511 5511 5508 5506 5504 5501 5498 5496 5494 5492 5491 5489 5488 5485 5481 5477 5472 5469 5467 5464 5461 5459 5456 5454 5452 5449 5447 5447 5446 5443 5438 5435 5433 5432 5431 5430 5429 5428 5426 5425 5426 5429 5428 5425 5424 5421 5417 5414 5411 5409 5408 5407
5509 5510 5510 5510 5510 5510 5509 5509 5509 5508 5507 5506 5505 5504 5504 5503 5502 5502 5502 5501 5502 5501 5500 5499 5497 5493 5490 5488 5486 5485 5484 5483 5481 5479 5478 5475 5471 5466 5462 5459 5456 5454 5453 5451 5448 5446 5444 5441 5438 5437 5435 5432 5429 5426 5424 5423 5423 5422 5420 5419 5417 5417 5418 5419 5419 5417 5416 5414 5409 5406 5404 5403 5402 5401
5502 5502 5503 5504 5503 5502 5502 5501 5500 5500 5500 5499 5498 5497 5495 5494 5494 5493 5491 5490 5489 5488 5487 5484 5481 5478 5476 5474 5472 5470 5469 5467 5467 5466 5466 5464 5460 5457 5453 5448 5444 5443 5442 5442 5439 5437 5435 5432 5430 5428 5426 5422 5420 5418 5417 5415 5414 5413 5412 5410 5409 5409 5411 5411 5410 5410 5409 5407 5403 5400 5398 5397 5396 5396
5493 5494 5496 5497 5496 5495 5494 5494 5494 5493 5493 5492 5491 5489 5488 5486 5485 5484 5482 5481 5479 5477 5475 5470 5466 5464 5463 5461 5458 5456 5454 5451 5450 5450 5450 5449 5448 5446 5443 5438 5433 5431 5429 5428 5427 5426 5425 5422 5421 5419 5416 5413 5410 5409 5408 5407 5406 5405 5404 5403 5402 5402 5403 5403 5402 5402 5401 5399 5397 5394 5392 5391 5390 5390
5483 5485 5488 5489 5489 5489 5488 5487 5487 5487 5486 5484 5481 5480 5479 5478 5477 5475 5473 5471 5469 5466 5462 5458 5454 5452 5451 5448 5446 5443 5441 5438 5437 5436 5435 5434 5432 5430 5428 5424 5421 5418 5417 5416 5415 5414 5413 5412 5411 5410 5407 5404 5402 5399 5398 5398 5397 5397 5396 5396 5395 5395 5394 5395 5394 5393 5392 5390 5389 5387 5384 5383 5382 5382
5474 5477 5479 5481 5482 5482 5481 5480 5480 5479 5477 5474 5471 5469 5469 5468 5467 5465 5464 5461 5458 5454 5450 5446 5442 5439 5437 5435 5434 5432 5429 5426 5424 5422 5421 5420 5417 5414 5412 5409 5407 5406 5406 5405 5404 5403 5402 5401 5400 5400 5398 5395 5393 5391 5390 5390 5389 5387 5387 5388 5388 5387 5386 5386 5385 5384 5383 5382 5380 5379 5378 5376 5375 5376
5467 5469 5472 5474 5474 5473 5470 5469 5469 5467 5466 5464 5461 5459 5457 5457 5457 5456 5453 5452 5448 5444 5440 5435 5431 5427 5424 5423 5421 5419 5416 5412 5410 5408 5407 5404 5402 5399 5398 5396 5395 5394 5395 5394 5393 5392 5391 5391 5390 5389 5388 5387 5385 5384 5383 5383 5382 5380 5380 5381 5380 5379 5379 5378 5377 5376 5375 5374 5373 5372 5372 5371 5371 5371
5460 5462 5464 5465 5464 5460 5456 5454 5454 5453 5453 5451 5449 5447 5445 5444 5445 5444 5444 5442 5438 5434 5430 5424 5420 5417 5413 5410 5409 5406 5403 5400 5397 5394 5392 5390 5388 5387 5385 5384 5383 5383 5383 5382 5381 5381 5380 5380 5380 5379 5378 5376 5374 5374 5375 5376 5376 5375 5375 5374 5373 5373 5372 5371 5370 5369 5368 5367 5367 5367 5366 5366 5366 5365
5452 5454 5454 5452 5449 5446 5443 5441 5440 5440 5440 5438 5437 5435 5433 5431 5430 5430 5432 5430 5427 5423 5419 5414 5409 5406 5403 5399 5397 5394 5391 5388 5385 5383 5381 5379 5377 5376 5374 5373 5373 5372 5371 5371 5371 5371 5370 5370 5371 5372 5371 5370 5369 5367 5368 5369 5370 5369 5369 5367 5367 5367 5367 5365 5364 5362 5362 5362 5363 5362 5362 5361 5361 5360
5443 5442 5441 5438 5436 5434 5432 5430 5428 5427 5427 5426 5425 5423 5421 5418 5417 5417 5418 5417 5413 5410 5406 5403 5398 5395 5391 5389 5386 5382 5379 5377 5374 5371 5370 5368 5367 5366 5365 5364 5363 5362 5362 5363 5363 5364 5365 5366 5367 5369 5369 5368 5367 5364 5362 5362 5362 5362 5362 5361 5361 5361 5360 5360 5359 5358 5357 5358 5358 5358 5357 5357 5356 5356
5433 5430 5428 5426 5425 5423 5421 5419 5418 5416 5415 5414 5413 5411 5409 5407 5406 5405 5406 5405 5401 5397 5394 5391 5388 5384 5380 5377 5374 5371 5368 5365 5363 5361 5360 5359 5359 5358 5357 5355 5355 5355 5356 5358 5360 5362 5363 5364 5365 5366 5365 5363 5361 5359 5357 5356 5356 5356 5357 5357 5356 5356 5355 5354 5354 5353 5353 5353 5353 5353 5352 5351 5351 5351
5423 5421 5418 5415 5414 5413 5411 5409 5408 5406 5404 5403 5402 5400 5399 5398 5396 5395 5395 5394 5391 5387 5383 5379 5376 5372 5368 5364 5362 5358 5355 5353 5352 5351 5351 5351 5350 5350 5350 5350 5350 5352 5353 5355 5356 5358 5360 5360 5360 5360 5359 5358 5356 5355 5354 5353 5352 5352 5353 5353 5353 5352 5350 5350 5350 5348 5347 5348 5348 5347 5345 5345 5345 5345
5412 5410 5408 5405 5403 5402 5401 5400 5399 5397 5396 5395 5393 5392 5391 5389 5386 5385 5385 5383 5380 5376 5371 5368 5364 5360 5356 5353 5350 5347 5345 5345 5344 5344 5344 5344 5344 5345 5346 5347 5348 5349 5349 5350 5351 5352 5355 5355 5355 5356 5355 5354 5352 5351 5349 5348 5347 5347 5348 5349 5350 5348 5346 5346 5346 5345 5344 5344 5343 5341 5340 5340 5340 5341
5402 5401 5399 5397 5395 5393 5391 5390 5390 5389 5388 5387 5386 5385 5384 5381 5379 5376 5374 5371 5368 5364 5360 5357 5353 5350 5347 5344 5342 5340 5339 5339 5339 5339 5339 5339 5340 5341 5343 5343 5344 5345 5344 5345 5346 5348 5349 5350 5350 5350 5350 5349 5348 5346 5344 5342 5342 5342 5343 5344 5345 5344 5343 5343 5343 5342 5341 5341 5338 5337 5337 5336 5335 5335
5395 5393 5391 5389 5387 5385 5383 5383 5382 5381 5380 5380 5379 5378 5377 5374 5371 5368 5364 5361 5358 5355 5351 5348 5346 5343 5341 5339 5337 5336 5335 5335 5335 5335 5336 5336 5338 5339 5341 5341 5342 5342 5343 5343 5344 5344 5344 5343 5344 5344 5344 5344 5343 5340 5339 5338 5338 5339 5340 5341 5341 5341 5341 5341 5340 5340 5339 5338 5336 5335 5334 5333 5331 5330
5388 5386 5383 5381 5379 5377 5376 5375 5374 5373 5372 5372 5371 5369 5369 5366 5362 5359 5356 5353 5350 5347 5345 5342 5340 5338 5337 5336 5334 5333 5333 5333 5333 5334 5335 5336 5337 5337 5338 5340 5340 5340 5340 5341 5341 5340 5339 5339 5338 5338 5338 5337 5336 5336 5335 5335 5335 5336 5337 5337 5338 5338 5338 5338 5338 5338 5337 5336 5335 5335 5334 5332 5331 5330
5382 5379 5377 5375 5372 5371 5370 5368 5367 5366 5364 5364 5362 5361 5359 5357 5354 5351 5348 5346 5344 5342 5340 5337 5335 5334 5334 5333 5332 5331 5330 5331 5331 5332 5333 5334 5335 5335 5336 5338 5338 5337 5337 5337 5336 5335 5335 5334 5333 5333 5332 5331 5331 5331 5331 5331 5332 5333 5333 5334 5335 5335 5336 5336 5336 5336 5334 5334 5334 5335 5333 5332 5330 5329